sat.trackr.live / text

‹ back to catalog

INTELSAT 16 (IS-16)

NORAD 36397 · 2010-006A

PAYLOAD ACTIVE UNKNOWN

§ Identity

Operator
Country
ITSO
Launch date
2010-02-12
Launch site
TYMSC
Launch vehicle
Mass (kg)
RCS (m²)
266.95

Purposes: comms

External: N2YO · Heavens-Above · Gunter

§ Orbital elements

Epoch: 2026-09-20T01:20:18.178944Z

Period
1,419.90 min
Inclination
0.0162°
Eccentricity
0.0001801
Mean motion
1.01415808 rev/d
Perigee alt
35,461.4 km
Apogee alt
35,476.4 km
Semi-major
41,847.0 km
B*
0.0000e+0
RAAN
256.3446°
Arg perigee
295.6633°
Mean anomaly
147.6391°
Rev number
6,060

§ Raw data

INTELSAT 16 (IS-16)1 36397U 10006A   26263.05576596 -.00000102  00000+0  00000+0 0  99992 36397   0.0162 256.3446 0001801 295.6633 147.6391  1.01415808 60604

JSON: /api/v1/satellites/36397 · /tle

For live sub-satellite position, see the globe view (requires WebGL).

§ Visibility from observer

Set your observer location to see the next 7 days of passes ≥ 10°. The values pass through the URL so the page stays shareable.

No JS? Fill the form by hand. The geolocation button needs JavaScript.